Date String (YYYY-MM-DD hh:mm:ss) UTC,Instrument flags,Ambient pressure (hPa),Sample flow (lpm),Bypass flow (lpm),Sample temperature (°C),Ambient temperature (°C),ASC tube jacket temperature (°C),LED temperature (°C),Box temperature (°C),Sample RH (%),Span deviation,Mass concentration (μg/m³),Mass concentration (μg/m³),Mass concentration (μg/m³)
DateTimeUTC,F1_M11,P_M11,Q1_M11,Q2_M11,T1_M11,T2_M11,T3_M11,T4_M11,T5_M11,U1_M11,ZSPAN_M11,X0_M11,X2_M11,X1_M11
2021-10-15 12:00:00,,0830.7,5.00,0.00,22.5,21.6,00.0,31.7,24.3,11.8,0000.0,0006.06,0003.43,0003.20
2021-10-15 12:01:00,,0830.8,4.99,0.00,22.5,21.6,00.0,31.7,24.2,12.1,0000.0,0005.99,0003.42,0003.20
2021-10-15 12:02:00,,0830.9,5.01,0.00,22.5,21.6,00.0,31.7,24.2,11.7,0000.0,0005.88,0003.38,0003.17
2021-10-15 12:03:00,,0830.8,5.00,0.00,22.6,22.0,00.0,31.7,24.4,13.6,0000.0,0006.12,0003.51,0003.29
2021-10-15 12:04:00,,0830.9,5.00,0.00,22.7,22.7,00.0,31.7,24.6,14.5,0000.0,0006.44,0003.73,0003.52
2021-10-15 12:05:00,,0830.9,4.99,0.00,22.8,23.2,00.0,31.7,24.8,15.5,0000.0,0006.98,0004.06,0003.84
2021-10-15 12:06:00,,0830.9,4.99,0.00,22.9,23.0,00.0,31.8,24.8,15.3,0000.0,0006.11,0004.32,0004.13
2021-10-15 12:07:00,,0830.9,5.01,0.00,22.9,22.9,00.0,31.8,24.8,14.9,0000.0,0006.13,0004.47,0004.29
2021-10-15 12:08:00,,0830.9,5.00,0.00,22.9,22.7,00.0,31.8,24.8,15.1,0000.0,0007.20,0004.71,0004.52
2021-10-15 12:09:00,,0831.0,5.00,0.00,22.9,22.6,00.0,31.8,24.8,14.5,0000.0,0007.71,0004.94,0004.71
2021-10-15 12:10:00,,0831.0,4.99,0.00,22.9,22.5,00.0,31.8,24.8,14.7,0000.0,0007.96,0005.17,0004.90
2021-10-15 12:11:00,,0830.9,5.01,0.00,22.9,22.4,00.0,31.8,24.8,16.0,0000.0,0008.35,0005.50,0005.24
2021-10-15 12:12:00,,0831.0,4.99,0.00,22.9,22.4,00.0,31.9,24.8,17.2,0000.0,0008.96,0006.03,0005.75
2021-10-15 12:13:00,,0830.9,5.00,0.00,22.9,22.3,00.0,31.9,24.8,17.6,0000.0,0009.65,0006.67,0006.37
2021-10-15 12:14:00,,0830.9,5.00,0.00,22.9,22.3,00.0,31.9,24.8,17.9,0000.0,0010.34,0007.20,0006.86
2021-10-15 12:15:00,,0830.9,5.01,0.00,22.9,22.2,00.0,31.9,24.8,18.2,0000.0,0010.65,0007.57,0007.23
2021-10-15 12:16:00,,0831.0,5.00,0.00,22.9,22.2,00.0,31.9,24.8,18.2,0000.0,0010.89,0007.81,0007.47
2021-10-15 12:17:00,,0831.0,5.00,0.00,22.9,22.2,00.0,31.9,24.7,17.9,0000.0,0011.38,0008.07,0007.68
2021-10-15 12:18:00,,0831.0,5.00,0.00,22.9,22.2,00.0,31.9,24.7,17.7,0000.4,0011.77,0008.38,0007.98
2021-10-15 12:19:00,,0831.0,5.00,0.00,22.9,22.2,00.0,31.9,24.7,17.5,0000.3,0011.47,0008.56,0008.18
2021-10-15 12:20:00,,0831.0,4.99,0.00,22.9,22.1,00.0,31.9,24.8,17.4,0000.5,0011.59,0008.84,0008.45
2021-10-15 12:21:00,,0830.9,5.01,0.00,22.9,22.1,00.0,31.9,24.8,17.4,0000.9,0011.82,0009.12,0008.74
2021-10-15 12:22:00,,0831.0,5.00,0.00,22.9,22.1,00.0,31.9,24.8,17.4,0001.2,0011.93,0009.29,0008.91
2021-10-15 12:23:00,,0831.0,4.99,0.00,22.9,22.1,00.0,32.0,24.8,17.5,0001.4,0011.76,0009.26,0008.89
2021-10-15 12:24:00,,0831.0,5.00,0.00,22.9,22.1,00.0,32.0,24.7,17.5,0001.6,0011.82,0009.17,0008.81
2021-10-15 12:25:00,,0831.0,5.01,0.00,22.9,22.1,00.0,32.0,24.7,17.6,0001.4,0011.69,0009.07,0008.72
2021-10-15 12:26:00,,0831.0,4.98,0.00,22.9,22.1,00.0,32.0,24.8,17.6,0001.0,0011.70,0009.04,0008.67
2021-10-15 12:27:00,,0831.0,5.00,0.00,22.9,22.0,00.0,32.0,24.7,17.2,0000.6,0011.67,0009.06,0008.70
2021-10-15 12:28:00,,0831.0,5.00,0.00,22.8,22.0,00.0,32.0,24.6,17.5,0000.8,0011.51,0009.15,0008.80
2021-10-15 12:29:00,,0831.0,5.00,0.00,22.8,21.9,00.0,32.0,24.6,17.6,0000.8,0011.56,0009.27,0008.91
2021-10-15 12:30:00,,0831.0,4.99,0.00,22.8,21.9,00.0,31.9,24.6,17.6,0000.9,0011.71,0009.41,0009.04
2021-10-15 12:31:00,,0831.0,5.00,0.00,22.8,21.9,00.0,31.9,24.6,17.7,0001.1,0011.81,0009.52,0009.16
2021-10-15 12:32:00,,0831.0,5.00,0.00,22.8,21.9,00.0,31.9,24.6,17.8,0001.0,0011.93,0009.60,0009.24
2021-10-15 12:33:00,,0831.0,5.00,0.00,22.8,21.9,00.0,31.9,24.6,17.8,0000.9,0011.95,0009.65,0009.27
2021-10-15 12:34:00,,0831.1,5.00,0.00,22.8,21.9,00.0,31.9,24.6,17.8,0000.6,0012.01,0009.70,0009.31
2021-10-15 12:35:00,,0831.2,5.01,0.00,22.8,21.9,00.0,31.9,24.6,17.8,0000.4,0011.89,0009.73,0009.34
2021-10-15 12:36:00,,0831.2,5.00,0.00,22.8,21.9,00.0,31.9,24.6,17.8,0000.6,0011.66,0009.72,0009.35
2021-10-15 12:37:00,,0831.2,5.00,0.00,22.8,21.9,00.0,31.9,24.6,17.8,0000.3,0011.62,0009.68,0009.33
2021-10-15 12:38:00,,0831.2,5.00,0.00,22.8,21.8,00.0,31.9,24.6,17.9,0000.0,0011.66,0009.69,0009.32
2021-10-15 12:39:00,,0831.1,5.00,0.00,22.7,21.8,00.0,31.9,24.5,18.0,0000.1,0011.68,0009.69,0009.30
2021-10-15 12:40:00,,0831.2,5.01,0.00,22.7,21.8,00.0,31.9,24.5,18.2,0000.1,0011.72,0009.71,0009.32
2021-10-15 12:41:00,,0831.2,5.00,0.00,22.7,21.8,00.0,31.9,24.5,18.3,-000.0,0011.80,0009.76,0009.35
2021-10-15 12:42:00,,0831.2,4.99,0.00,22.7,21.8,00.0,31.8,24.4,18.3,-000.4,0011.82,0009.76,0009.34
2021-10-15 12:43:00,,0831.2,5.01,0.00,22.7,21.8,00.0,31.8,24.4,18.3,-000.3,0012.15,0009.71,0009.32
2021-10-15 12:44:00,,0831.2,4.99,0.00,22.7,21.8,00.0,31.8,24.4,18.2,-000.4,0012.20,0009.69,0009.30
2021-10-15 12:45:00,,0831.2,4.99,0.00,22.6,21.8,00.0,31.8,24.4,17.7,-000.1,0012.17,0009.60,0009.23
2021-10-15 12:46:00,,0831.2,5.02,0.00,22.6,21.7,00.0,31.8,24.4,17.5,-000.2,0012.01,0009.44,0009.08
2021-10-15 12:47:00,,0831.2,5.00,0.00,22.6,21.7,00.0,31.8,24.3,17.4,-000.6,0011.97,0009.36,0008.98
2021-10-15 12:48:00,,0831.2,4.99,0.00,22.6,21.7,00.0,31.8,24.3,17.5,-000.8,0011.87,0009.25,0008.88
2021-10-15 12:49:00,,0831.2,5.00,0.00,22.5,21.6,00.0,31.8,24.3,17.5,-000.5,0011.68,0009.10,0008.77
2021-10-15 12:50:00,,0831.2,5.01,0.00,22.5,21.6,00.0,31.7,24.3,17.3,-000.4,0011.49,0008.91,0008.59
2021-10-15 12:51:00,,0831.2,5.01,0.00,22.5,21.6,00.0,31.7,24.3,17.2,-000.4,0011.39,0008.74,0008.41
2021-10-15 12:52:00,,0831.1,5.00,0.00,22.5,21.6,00.0,31.7,24.2,17.1,-000.1,0011.18,0008.53,0008.21
2021-10-15 12:53:00,,0831.2,4.99,0.00,22.5,21.6,00.0,31.7,24.2,16.7,-000.2,0010.92,0008.29,0008.00
2021-10-15 12:54:00,,0831.2,5.00,0.00,22.4,21.5,00.0,31.7,24.2,16.0,-000.5,0010.35,0007.99,0007.71
2021-10-15 12:55:00,,0831.2,4.99,0.00,22.4,21.5,00.0,31.6,24.1,15.6,-000.3,0010.02,0007.67,0007.37
2021-10-15 12:56:00,,0831.2,5.01,0.00,22.4,21.5,00.0,31.6,24.1,15.6,-000.6,0009.72,0007.42,0007.13
2021-10-15 12:57:00,,0831.2,5.00,0.00,22.3,21.5,00.0,31.6,24.1,15.0,-000.6,0009.57,0007.23,0006.95
2021-10-15 12:58:00,,0831.2,5.00,0.00,22.4,21.8,00.0,31.6,24.2,14.5,-000.2,0009.32,0006.97,0006.71
2021-10-15 12:59:00,,0831.2,5.00,0.00,22.5,22.5,00.0,31.6,24.4,13.8,0000.7,0009.08,0006.68,0006.41
